• In Hungary
  • List of Countries
  • For 7 days
  • Water Temperature
  • Satellite Maps
  • Weather Map
  • News
  • Weather Widgets
  • user-avatar
    Login

    Hourly Weather Komovi

    Today, 19 July, Thursday

    Time Temperature Precipitation Wind Pressure Humidity
    00:00 +14°C° 0 mm 3 mps 684 mmHg 69%
    01:00 +15°C° 0 mm 2 mps 684 mmHg 72%
    02:00 +15°C° 0 mm 2 mps 684 mmHg 72%
    03:00 +15°C° 0 mm 2 mps 684 mmHg 72%
    04:00 +14°C° 0 mm 3 mps 684 mmHg 73%
    05:00 +16°C° 0 mm 3 mps 684 mmHg 70%
    06:00 +18°C° 0 mm 2 mps 684 mmHg 68%
    07:00 +20°C° 0 mm 2 mps 684 mmHg 64%
    08:00 +21°C° 0 mm 3 mps 685 mmHg 61%
    09:00 +22°C° 0 mm 3 mps 685 mmHg 57%
    10:00 +24°C° 0 mm 3 mps 685 mmHg 54%
    11:00 +25°C° 0 mm 3 mps 686 mmHg 52%
    12:00 +25°C° 0 mm 4 mps 686 mmHg 51%
    13:00 +26°C° 0 mm 4 mps 686 mmHg 50%
    14:00 +26°C° 0.1 mm 4 mps 686 mmHg 51%
    15:00 +26°C° 0.1 mm 4 mps 685 mmHg 53%
    16:00 +26°C° 0.1 mm 4 mps 685 mmHg 54%
    17:00 +23°C° 0 mm 4 mps 685 mmHg 59%
    18:00 +21°C° 0 mm 4 mps 685 mmHg 65%
    19:00 +20°C° 0 mm 4 mps 684 mmHg 70%
    20:00 +19°C° 0 mm 3 mps 685 mmHg 71%
    21:00 +17°C° 0 mm 3 mps 685 mmHg 72%
    22:00 +16°C° 0 mm 3 mps 685 mmHg 72%
    23:00 +16°C° 0 mm 3 mps 685 mmHg 73%

    Tomorrow, 20 July, Friday

    Time Temperature Precipitation Wind Pressure Humidity
    00:00 +16°C° 0 mm 3 mps 685 mmHg 73%
    01:00 +14°C° 0 mm 3 mps 685 mmHg 74%
    02:00 +14°C° 0 mm 3 mps 684 mmHg 74%
    03:00 +14°C° 0 mm 3 mps 684 mmHg 74%
    04:00 +14°C° 0 mm 3 mps 684 mmHg 74%
    05:00 +16°C° 0 mm 3 mps 685 mmHg 72%
    06:00 +18°C° 0 mm 3 mps 685 mmHg 70%
    07:00 +20°C° 0 mm 2 mps 685 mmHg 68%
    08:00 +21°C° 0 mm 2 mps 686 mmHg 60%
    09:00 +24°C° 0 mm 2 mps 686 mmHg 52%
    10:00 +26°C° 0 mm 2 mps 687 mmHg 44%
    11:00 +26°C° 0 mm 2 mps 687 mmHg 42%
    12:00 +27°C° 0 mm 3 mps 686 mmHg 41%
    13:00 +28°C° 0 mm 3 mps 686 mmHg 40%
    14:00 +27°C° 0 mm 3 mps 686 mmHg 41%
    15:00 +27°C° 0 mm 3 mps 686 mmHg 43%
    16:00 +27°C° 0 mm 3 mps 686 mmHg 44%
    17:00 +25°C° 0 mm 3 mps 686 mmHg 52%
    18:00 +22°C° 0 mm 3 mps 685 mmHg 59%
    19:00 +20°C° 0 mm 2 mps 685 mmHg 67%
    20:00 +19°C° 0 mm 2 mps 685 mmHg 67%
    21:00 +18°C° 0 mm 2 mps 685 mmHg 67%
    22:00 +17°C° 0 mm 2 mps 686 mmHg 67%
    23:00 +17°C° 0 mm 2 mps 685 mmHg 66%

    Day after tomorrow, 21 July, Saturday

    Time Temperature Precipitation Wind Pressure Humidity
    00:00 +17°C° 0 mm 2 mps 685 mmHg 64%
    01:00 +17°C° 0 mm 2 mps 685 mmHg 63%
    02:00 +17°C° 0 mm 2 mps 685 mmHg 62%
    03:00 +16°C° 0 mm 2 mps 685 mmHg 62%
    04:00 +16°C° 0 mm 2 mps 684 mmHg 61%
    05:00 +18°C° 0 mm 2 mps 685 mmHg 60%
    06:00 +21°C° 0 mm 1 mps 685 mmHg 59%
    07:00 +23°C° 0 mm 1 mps 686 mmHg 58%
    08:00 +24°C° 0 mm 1 mps 686 mmHg 55%
    09:00 +26°C° 0 mm 1 mps 686 mmHg 52%
    10:00 +27°C° 0 mm 1 mps 686 mmHg 48%
    11:00 +28°C° 0 mm 2 mps 686 mmHg 49%
    12:00 +28°C° 0 mm 3 mps 686 mmHg 50%
    13:00 +28°C° 0 mm 3 mps 686 mmHg 50%
    14:00 +28°C° 0.1 mm 3 mps 686 mmHg 52%
    15:00 +28°C° 0.1 mm 2 mps 686 mmHg 53%
    16:00 +27°C° 0.1 mm 2 mps 686 mmHg 55%
    17:00 +26°C° 0 mm 2 mps 686 mmHg 61%
    18:00 +24°C° 0 mm 1 mps 685 mmHg 68%
    19:00 +20°C° 0 mm 0 mps 685 mmHg 75%
    20:00 +21°C° 0 mm 1 mps 685 mmHg 76%
    21:00 +20°C° 0 mm 1 mps 685 mmHg 77%
    22:00 +19°C° 0 mm 1 mps 685 mmHg 79%
    23:00 +18°C° 0 mm 2 mps 685 mmHg 76%

    22 July, Sunday

    Time Temperature Precipitation Wind Pressure Humidity
    00:00 +18°C° 0 mm 2 mps 685 mmHg 74%
    01:00 +18°C° 0 mm 2 mps 685 mmHg 72%
    02:00 +17°C° 0 mm 2 mps 684 mmHg 70%
    03:00 +17°C° 0 mm 3 mps 684 mmHg 69%
    04:00 +17°C° 0 mm 3 mps 684 mmHg 68%
    05:00 +19°C° 0 mm 3 mps 684 mmHg 66%
    06:00 +21°C° 0 mm 3 mps 684 mmHg 64%
    07:00 +22°C° 0 mm 3 mps 684 mmHg 62%
    08:00 +25°C° 0 mm 3 mps 684 mmHg 57%
    09:00 +26°C° 0 mm 3 mps 684 mmHg 51%
    10:00 +28°C° 0 mm 4 mps 684 mmHg 46%
    11:00 +28°C° 0 mm 4 mps 684 mmHg 45%
    12:00 +28°C° 0 mm 4 mps 683 mmHg 44%
    13:00 +29°C° 0 mm 5 mps 683 mmHg 44%
    14:00 +28°C° 0 mm 5 mps 683 mmHg 47%
    15:00 +27°C° 0 mm 4 mps 682 mmHg 50%
    16:00 +27°C° 0 mm 4 mps 682 mmHg 53%
    17:00 +25°C° 0 mm 4 mps 682 mmHg 60%
    18:00 +22°C° 0 mm 3 mps 681 mmHg 68%
    19:00 +20°C° 0 mm 3 mps 681 mmHg 76%
    20:00 +20°C° 0 mm 3 mps 681 mmHg 76%
    21:00 +19°C° 0 mm 3 mps 681 mmHg 76%
    22:00 +18°C° 0 mm 3 mps 681 mmHg 77%
    23:00 +18°C° 0.3 mm 2 mps 681 mmHg 79%

    23 July, Monday

    Time Temperature Precipitation Wind Pressure Humidity
    00:00 +17°C° 0.3 mm 2 mps 681 mmHg 82%
    01:00 +17°C° 0.3 mm 2 mps 681 mmHg 84%
    02:00 +16°C° 0.7 mm 2 mps 680 mmHg 87%
    03:00 +16°C° 0.7 mm 2 mps 680 mmHg 90%
    04:00 +15°C° 0.7 mm 2 mps 680 mmHg 92%
    05:00 +17°C° 0.6 mm 2 mps 680 mmHg 91%
    06:00 +18°C° 0.6 mm 2 mps 680 mmHg 89%
    07:00 +19°C° 0.6 mm 2 mps 681 mmHg 87%
    08:00 +20°C° 0.7 mm 2 mps 681 mmHg 80%
    09:00 +21°C° 0.7 mm 3 mps 681 mmHg 73%
    10:00 +22°C° 0.7 mm 3 mps 681 mmHg 66%
    11:00 +21°C° 0.5 mm 3 mps 681 mmHg 67%
    12:00 +21°C° 0.5 mm 3 mps 681 mmHg 68%
    13:00 +21°C° 0.5 mm 3 mps 681 mmHg 68%
    14:00 +21°C° 0.4 mm 3 mps 681 mmHg 69%
    15:00 +20°C° 0.4 mm 2 mps 681 mmHg 70%
    16:00 +20°C° 0.4 mm 2 mps 681 mmHg 71%
    17:00 +19°C° 0.3 mm 2 mps 681 mmHg 76%
    18:00 +18°C° 0.3 mm 2 mps 681 mmHg 80%
    19:00 +18°C° 0.3 mm 1 mps 681 mmHg 84%
    20:00 +17°C° 0 mm 2 mps 681 mmHg 85%
    21:00 +16°C° 0 mm 2 mps 681 mmHg 85%
    22:00 +16°C° 0 mm 2 mps 681 mmHg 85%
    23:00 +16°C° 0 mm 2 mps 681 mmHg 86%

    24 July, Tuesday

    Time Temperature Precipitation Wind Pressure Humidity
    00:00 +15°C° 0 mm 2 mps 680 mmHg 86%
    01:00 +15°C° 0 mm 2 mps 680 mmHg 87%
    02:00 +15°C° 0.1 mm 2 mps 680 mmHg 86%
    03:00 +15°C° 0.1 mm 2 mps 680 mmHg 86%
    04:00 +15°C° 0.1 mm 2 mps 680 mmHg 86%
    05:00 +16°C° 0.2 mm 2 mps 680 mmHg 85%
    06:00 +16°C° 0.2 mm 2 mps 680 mmHg 84%
    07:00 +17°C° 0.2 mm 2 mps 681 mmHg 83%
    08:00 +18°C° 0.1 mm 2 mps 681 mmHg 80%
    09:00 +19°C° 0.1 mm 2 mps 681 mmHg 77%
    10:00 +20°C° 0.1 mm 2 mps 682 mmHg 74%
    11:00 +21°C° 0.1 mm 2 mps 682 mmHg 71%
    12:00 +21°C° 0.1 mm 2 mps 682 mmHg 68%
    13:00 +22°C° 0.1 mm 3 mps 682 mmHg 66%
    14:00 +22°C° 0.2 mm 3 mps 682 mmHg 65%
    15:00 +24°C° 0.2 mm 3 mps 682 mmHg 65%
    16:00 +24°C° 0.2 mm 3 mps 682 mmHg 64%
    17:00 +21°C° 0.1 mm 3 mps 682 mmHg 69%
    18:00 +20°C° 0.1 mm 2 mps 682 mmHg 74%
    19:00 +19°C° 0.1 mm 2 mps 682 mmHg 79%
    20:00 +18°C° 0 mm 2 mps 682 mmHg 81%
    21:00 +17°C° 0 mm 2 mps 682 mmHg 83%
    22:00 +16°C° 0 mm 3 mps 682 mmHg 86%
    23:00 +16°C° 0 mm 3 mps 682 mmHg 86%
    Show more